FENGYUN 1C DEB

Satellite information

Favourite Embed

Satellite Type and Status

DEBRISIN ORBIT

Key statistics

Satellite FENGYUN 1C DEB at a glance.

Uptime

9615

Days in orbit

Revolutions

≈ 14.6

Per day

Orbit

SSO

Sun Synchronous Orbit

Inclination

98.8

Latest

Satellite identification and parameters

Extended collection of information and parameters for FENGYUN 1C DEB.

Object identification

Identified? True

Debris? True

Object name: FENGYUN 1C DEB

International designator: 1999-025MS

Object number (NORAD): 30017

Object ID (CCSDS): 30017

Country: PEOPLES REPUBLIC OF CHINA (PRC)

Current information (Y/N): Y

RCS size: SMALL

Orbital parameters

Period: 98.573 minutes

Inclination: 98.7707 deg

SMA: 7068.599 km

Apoapsis: 845.562 km

Periapsis: 535.365 km

RAAN: 285.81 deg

Eccentricy: 0.02194194

Argument of periapsis: 121.8138 deg

Mean anomaly: 240.4632 deg

Mean motion: 14.60840427 rev/day

Mean motion (dot): 0.00002357 rev/day2

B* drag term: 0.00035199341 1/REarth

Two-line elements (TLE)

Creation date: Sept. 4, 2025, 10:13 a.m.

Reference frame: TEME

Reference center: EARTH

Epoch: Sept. 4, 2025, 2:26 a.m. UTC

TLE line 0: 0 FENGYUN 1C DEB

TLE line 1: 1 30017U 99025MS 25247.10182792 .00002357 00000-0 35199-3 0 9993

TLE line 2: 2 30017 98.7707 285.8100 0219419 121.8138 240.4632 14.60840427989895

Live tracking on map

Real-time ground track for satellite FENGYUN 1C DEB.

In-orbit conjunctions

A list of the most updated potential collisions computed for object FENGYUN 1C DEB.

Target Orbit TCA Probability of collision Miss distance Type
COSMOS 2251 DEB LEO 2025-08-03 19:30:04 0.0001046334 161.0 (m) DEBRIS
CZ-6A DEB SSO 2025-03-16 22:19:58 0.000158479 125.0 (m) DEBRIS

Associated space launch

Chinese polar orbiting meteorological satellite

FENGYUN 1C DEB was lifted into orbit during the mission ‘Long March 4B | Feng Yun 1C’, on board a Long March 4B space rocket.

The launch took place on May 10, 1999, 1:33 a.m. from Launch Complex 7.

For more information about the launch, click the button.

Launch to space Long March 4B | Feng Yun 1C
Long March 4B | Feng Yun 1C

Agency: N/A

Status: Launch Successful

Launch date: May 10, 1999, 1:33 a.m. UTC

Rocket: Long March 4B

Launch pad: Launch Complex 7

Location: Taiyuan Satellite Launch Center, People's Republic of China

...

Latest news about this satellite

There are no fresh news available about this satellite. Check back as we update our databases every day.


Newsletter sign-up

Weekly statistics, charts and insights to help you stay on top of the space industry.